N222HL KCMH-CYYZ

Flight info

Callsign N222HL
Flight time N/A
Altitude 41000
Route RDBUV DCT NOWZU DCT JUSEP DCT DJB DCT QWERI NUBER6
Aircraft CL60/M-SBDE1E2E3FGHIJ1J4J5J7M3RWXYZ/LB1V1D1

Departure

Time 2026-05-09 01:27
Airport John Glenn Columbus International Airport (KCMH)

Arrival

Time N/A
Airport Toronto Pearson International Airport (CYYZ)
Time Latitude Longitude Altitude Speed Heading
2026-05-09 00:58 40.00637 -82.89977 817 ft 0 kts 93°
2026-05-09 01:17 40.00596 -82.89950 816 ft 11 kts 144°
2026-05-09 01:18 40.00544 -82.89856 816 ft 14 kts 139°
2026-05-09 01:18 40.00460 -82.89763 816 ft 11 kts 138°
2026-05-09 01:18 40.00382 -82.89739 816 ft 10 kts 138°
2026-05-09 01:18 40.00349 -82.89709 815 ft 1 kts 181°
2026-05-09 01:19 40.00348 -82.89709 815 ft 0 kts 181°
2026-05-09 01:19 40.00347 -82.89709 815 ft 0 kts 181°
2026-05-09 01:21 40.00341 -82.89709 815 ft 6 kts 182°
2026-05-09 01:21 40.00244 -82.89748 815 ft 16 kts 211°
2026-05-09 01:21 40.00168 -82.89722 815 ft 14 kts 104°
2026-05-09 01:22 40.00158 -82.89566 815 ft 19 kts 94°
2026-05-09 01:22 40.00148 -82.89373 815 ft 22 kts 94°
2026-05-09 01:22 40.00137 -82.89157 815 ft 25 kts 94°
2026-05-09 01:22 40.00121 -82.88923 815 ft 27 kts 95°
2026-05-09 01:23 40.00106 -82.88665 814 ft 29 kts 94°
2026-05-09 01:23 40.00089 -82.88387 812 ft 30 kts 94°
2026-05-09 01:23 40.00075 -82.88135 810 ft 25 kts 94°
2026-05-09 01:23 40.00068 -82.88011 809 ft 4 kts 94°
2026-05-09 01:24 40.00073 -82.87952 808 ft 7 kts 51°
2026-05-09 01:24 40.00089 -82.87940 808 ft 0 kts
2026-05-09 01:26 40.00128 -82.87945 807 ft 13 kts 336°
2026-05-09 01:26 40.00166 -82.88032 808 ft 0 kts 274°
2026-05-09 01:27 40.00166 -82.88034 808 ft 3 kts 274°
2026-05-09 01:27 40.00189 -82.88435 812 ft 95 kts 274°
2026-05-09 01:27 40.00261 -82.89692 1027 ft 167 kts 274°
2026-05-09 01:27 40.00351 -82.91254 1943 ft 189 kts 272°
2026-05-09 01:28 40.00451 -82.93076 3089 ft 212 kts 270°
2026-05-09 01:28 40.00597 -82.94981 4351 ft 227 kts 273°
2026-05-09 01:28 40.00776 -82.97077 5110 ft 238 kts 273°
2026-05-09 01:28 40.00987 -82.99226 5013 ft 237 kts 275°
2026-05-09 01:29 40.01531 -83.01206 5001 ft 236 kts 298°
2026-05-09 01:29 40.02694 -83.02801 4999 ft 249 kts 317°
2026-05-09 01:29 40.04287 -83.03908 4993 ft 270 kts 336°
2026-05-09 01:29 40.06231 -83.04216 5159 ft 304 kts
2026-05-09 01:30 40.08258 -83.03267 6629 ft 317 kts 29°
2026-05-09 01:30 40.09988 -83.01642 8373 ft 314 kts 33°
2026-05-09 01:30 40.11697 -82.99970 10033 ft 311 kts 32°
2026-05-09 01:30 40.13397 -82.98316 11489 ft 315 kts 31°
2026-05-09 01:31 40.15187 -82.96578 12388 ft 325 kts 31°
2026-05-09 01:31 40.17004 -82.94807 12820 ft 326 kts 32°
2026-05-09 01:31 40.18835 -82.93014 12975 ft 326 kts 31°
2026-05-09 01:31 40.20669 -82.91226 13167 ft 345 kts 31°
2026-05-09 01:32 40.22591 -82.89346 14518 ft 346 kts 31°
2026-05-09 01:32 40.24493 -82.87480 15995 ft 342 kts 30°
2026-05-09 01:32 40.26368 -82.85644 17272 ft 342 kts 30°
2026-05-09 01:32 40.28272 -82.83780 18321 ft 348 kts 30°
2026-05-09 01:33 40.30206 -82.81887 19284 ft 355 kts 29°
2026-05-09 01:33 40.32162 -82.79972 20144 ft 363 kts 29°
2026-05-09 01:33 40.33650 -82.78514 20777 ft 369 kts 29°
2026-05-09 01:33 40.35691 -82.76509 21676 ft 375 kts 28°
2026-05-09 01:34 40.37805 -82.74432 22541 ft 381 kts 28°
2026-05-09 01:34 40.39946 -82.72372 23329 ft 385 kts 24°
2026-05-09 01:34 40.42327 -82.70831 24163 ft 378 kts 12°
2026-05-09 01:34 40.44786 -82.69544 25017 ft 383 kts 11°
2026-05-09 01:35 40.47258 -82.68239 25845 ft 388 kts 11°
2026-05-09 01:35 40.49779 -82.66907 26731 ft 390 kts 11°
2026-05-09 01:35 40.52311 -82.65562 27535 ft 393 kts 11°
2026-05-09 01:35 40.54903 -82.64175 28234 ft 400 kts 12°
2026-05-09 01:36 40.57497 -82.62669 28938 ft 405 kts 12°
2026-05-09 01:36 40.60097 -82.61136 29566 ft 411 kts 12°
2026-05-09 01:36 40.62731 -82.59582 30165 ft 415 kts 12°
2026-05-09 01:36 40.65344 -82.58034 30820 ft 417 kts 12°
2026-05-09 01:37 40.68030 -82.56445 31332 ft 422 kts 12°
2026-05-09 01:37 40.70707 -82.54861 31775 ft 427 kts 12°
2026-05-09 01:37 40.73444 -82.53236 32250 ft 431 kts 12°
2026-05-09 01:37 40.76191 -82.51605 32679 ft 435 kts 11°
2026-05-09 01:38 40.79000 -82.49939 32882 ft 445 kts 12°
2026-05-09 01:38 40.81883 -82.48232 32886 ft 459 kts 12°
2026-05-09 01:38 40.84869 -82.46459 32887 ft 472 kts 12°
2026-05-09 01:38 40.87884 -82.44681 32886 ft 482 kts 12°
2026-05-09 01:39 40.94081 -82.41026 32883 ft 490 kts 12°
2026-05-09 01:39 41.00308 -82.37340 32876 ft 492 kts 12°
2026-05-09 01:40 41.06606 -82.33614 32886 ft 504 kts 13°
2026-05-09 01:40 41.13101 -82.29761 32892 ft 512 kts 13°
2026-05-09 01:41 41.19680 -82.25845 32891 ft 514 kts 14°
2026-05-09 01:41 41.26165 -82.21975 32885 ft 512 kts 13°
2026-05-09 01:42 41.32731 -82.18454 32890 ft 498 kts
2026-05-09 01:42 41.36086 -82.17374 32896 ft 487 kts 359°
2026-05-09 01:42 41.39415 -82.16799 32886 ft 477 kts 353°
2026-05-09 01:43 41.45929 -82.16914 32884 ft 464 kts 345°
2026-05-09 01:43 41.52403 -82.17382 32879 ft 465 kts 345°
2026-05-09 01:44 41.58872 -82.17847 32875 ft 465 kts 345°
2026-05-09 01:44 41.65349 -82.18314 32867 ft 465 kts 345°
2026-05-09 01:45 41.71842 -82.18783 32874 ft 466 kts 345°
2026-05-09 01:45 41.78321 -82.19253 32861 ft 466 kts 345°
2026-05-09 01:46 41.84798 -82.19722 32858 ft 466 kts 345°
2026-05-09 01:46 41.91273 -82.20192 32860 ft 466 kts 345°
2026-05-09 01:47 41.97744 -82.20663 32853 ft 466 kts 345°
2026-05-09 01:47 42.04238 -82.21137 32852 ft 466 kts 345°
2026-05-09 01:48 42.10681 -82.21606 32853 ft 466 kts 345°
2026-05-09 01:48 42.17202 -82.22084 32834 ft 464 kts 345°
2026-05-09 01:49 42.20384 -82.22304 32815 ft 447 kts 345°
2026-05-09 01:49 42.23419 -82.22513 32812 ft 433 kts 345°
2026-05-09 01:49 42.26432 -82.22726 32700 ft 423 kts 344°
2026-05-09 01:49 42.29361 -82.22938 32442 ft 414 kts 344°
2026-05-09 01:50 42.32200 -82.23139 31711 ft 407 kts 344°
2026-05-09 01:50 42.35030 -82.23354 30782 ft 410 kts 344°
2026-05-09 01:50 42.37859 -82.23570 29993 ft 410 kts 345°
2026-05-09 01:50 42.40686 -82.23780 29333 ft 407 kts 345°
2026-05-09 01:51 42.43526 -82.23989 28763 ft 401 kts 345°
2026-05-09 01:51 42.46278 -82.24192 28178 ft 397 kts 345°
2026-05-09 01:51 42.49010 -82.24394 27555 ft 393 kts 346°
2026-05-09 01:51 42.51725 -82.24596 26939 ft 390 kts 346°
2026-05-09 01:52 42.54458 -82.24799 26339 ft 386 kts 346°
2026-05-09 01:52 42.57107 -82.24996 25727 ft 383 kts 346°
2026-05-09 01:52 42.59784 -82.25196 25106 ft 380 kts 347°
2026-05-09 01:52 42.62385 -82.25362 24538 ft 379 kts 350°
2026-05-09 01:53 42.65035 -82.25005 23962 ft 389 kts
2026-05-09 01:53 42.67631 -82.23823 23352 ft 400 kts 17°
2026-05-09 01:53 42.70008 -82.21774 22768 ft 410 kts 33°
2026-05-09 01:53 42.71963 -82.18930 22212 ft 415 kts 47°
2026-05-09 01:54 42.73675 -82.15757 21607 ft 412 kts 49°
2026-05-09 01:54 42.75341 -82.12659 21078 ft 406 kts 49°
2026-05-09 01:54 42.76983 -82.09605 20851 ft 399 kts 49°
2026-05-09 01:54 42.78646 -82.06521 20826 ft 403 kts 49°
2026-05-09 01:55 42.80267 -82.03384 20838 ft 406 kts 53°
2026-05-09 01:55 42.81684 -82.00050 20840 ft 408 kts 56°
2026-05-09 01:55 42.83075 -81.96674 20845 ft 409 kts 56°
2026-05-09 01:55 42.84467 -81.93303 20843 ft 408 kts 56°
2026-05-09 01:56 42.85857 -81.89931 20838 ft 408 kts 56°
2026-05-09 01:56 42.87248 -81.86555 20845 ft 408 kts 56°
2026-05-09 01:56 42.88627 -81.83205 20835 ft 408 kts 56°
2026-05-09 01:56 42.90028 -81.79797 20856 ft 408 kts 56°
2026-05-09 01:57 42.91406 -81.76442 20846 ft 408 kts 56°
2026-05-09 01:57 42.92791 -81.73068 20846 ft 408 kts 56°
2026-05-09 01:57 42.94176 -81.69688 20844 ft 408 kts 56°
2026-05-09 01:57 42.95558 -81.66315 20841 ft 408 kts 56°
2026-05-09 01:58 42.96943 -81.62927 20843 ft 408 kts 56°
2026-05-09 01:58 42.98342 -81.59505 20850 ft 408 kts 56°
2026-05-09 01:58 42.99727 -81.56110 20858 ft 408 kts 56°
2026-05-09 01:58 43.01100 -81.52742 20843 ft 407 kts 56°
2026-05-09 01:59 43.02473 -81.49370 20847 ft 407 kts 56°
2026-05-09 01:59 43.03845 -81.45998 20863 ft 408 kts 56°
2026-05-09 01:59 43.05230 -81.42590 20866 ft 407 kts 56°
2026-05-09 01:59 43.06603 -81.39204 20861 ft 407 kts 56°
2026-05-09 02:00 43.07950 -81.35809 20862 ft 408 kts 57°
2026-05-09 02:00 43.09308 -81.32340 20859 ft 408 kts 58°
2026-05-09 02:00 43.10646 -81.28921 20875 ft 408 kts 58°
2026-05-09 02:00 43.11985 -81.25497 20878 ft 408 kts 58°
2026-05-09 02:01 43.13343 -81.22016 20865 ft 408 kts 58°
2026-05-09 02:01 43.14673 -81.18605 20875 ft 407 kts 58°
2026-05-09 02:01 43.16011 -81.15169 20870 ft 407 kts 58°
2026-05-09 02:01 43.17341 -81.11750 20859 ft 407 kts 58°
2026-05-09 02:02 43.18665 -81.08344 20873 ft 407 kts 58°
2026-05-09 02:02 43.19989 -81.04932 20876 ft 407 kts 58°
2026-05-09 02:02 43.21315 -81.01511 20876 ft 407 kts 58°
2026-05-09 02:02 43.22657 -80.98046 20873 ft 407 kts 58°
2026-05-09 02:03 43.23988 -80.94605 20859 ft 407 kts 58°
2026-05-09 02:03 43.25303 -80.91200 20870 ft 406 kts 58°
2026-05-09 02:03 43.26624 -80.87779 20865 ft 407 kts 58°
2026-05-09 02:03 43.27942 -80.84358 20864 ft 407 kts 58°
2026-05-09 02:04 43.29265 -80.80921 20865 ft 407 kts 58°
2026-05-09 02:04 43.30587 -80.77483 20866 ft 407 kts 58°
2026-05-09 02:04 43.31912 -80.74033 20863 ft 407 kts 58°
2026-05-09 02:04 43.33221 -80.70618 20867 ft 407 kts 58°
2026-05-09 02:05 43.34549 -80.67152 20865 ft 408 kts 58°
2026-05-09 02:05 43.35857 -80.63734 20851 ft 407 kts 58°
2026-05-09 02:05 43.37188 -80.60250 20843 ft 407 kts 58°
2026-05-09 02:05 43.38490 -80.56838 20507 ft 401 kts 58°
2026-05-09 02:06 43.39769 -80.53474 19995 ft 395 kts 58°
2026-05-09 02:06 43.41027 -80.50168 19495 ft 390 kts 58°
2026-05-09 02:06 43.42269 -80.46900 18994 ft 384 kts 58°
2026-05-09 02:07 43.44719 -80.40444 18000 ft 375 kts 58°
2026-05-09 02:07 43.45883 -80.37236 17550 ft 371 kts 62°
2026-05-09 02:07 43.46830 -80.33986 17116 ft 367 kts 66°
2026-05-09 02:07 43.47737 -80.30708 16657 ft 362 kts 66°
2026-05-09 02:08 43.48628 -80.27499 16210 ft 359 kts 66°
2026-05-09 02:08 43.49518 -80.24290 15712 ft 356 kts 66°
2026-05-09 02:08 43.50403 -80.21098 15257 ft 352 kts 66°
2026-05-09 02:08 43.51261 -80.17972 14778 ft 350 kts 66°
2026-05-09 02:09 43.52099 -80.14838 14336 ft 346 kts 67°
2026-05-09 02:09 43.52915 -80.11774 13892 ft 342 kts 67°
2026-05-09 02:09 43.53733 -80.08702 13441 ft 336 kts 67°
2026-05-09 02:09 43.54517 -80.05750 13037 ft 324 kts 67°
2026-05-09 02:10 43.55290 -80.02840 12675 ft 318 kts 67°
2026-05-09 02:10 43.56046 -79.99995 12220 ft 318 kts 67°
2026-05-09 02:10 43.56801 -79.97153 11831 ft 315 kts 67°
2026-05-09 02:10 43.57553 -79.94319 11422 ft 312 kts 67°
2026-05-09 02:11 43.58292 -79.91529 11021 ft 310 kts 67°
2026-05-09 02:11 43.59072 -79.88761 10622 ft 304 kts 59°
2026-05-09 02:11 43.60311 -79.86497 10238 ft 292 kts 36°
2026-05-09 02:11 43.61914 -79.84849 9854 ft 286 kts 30°
2026-05-09 02:12 43.63517 -79.83293 9455 ft 277 kts 30°
2026-05-09 02:12 43.65042 -79.81799 9152 ft 265 kts 30°
2026-05-09 02:12 43.66540 -79.80335 8810 ft 257 kts 30°
2026-05-09 02:12 43.67977 -79.78933 8485 ft 255 kts 30°
2026-05-09 02:13 43.69422 -79.77525 8162 ft 254 kts 30°
2026-05-09 02:13 43.70882 -79.76102 7831 ft 254 kts 31°
2026-05-09 02:13 43.72320 -79.74698 7503 ft 252 kts 31°
2026-05-09 02:13 43.73754 -79.73297 7174 ft 251 kts 31°
2026-05-09 02:14 43.75131 -79.71878 6865 ft 249 kts 38°
2026-05-09 02:14 43.76358 -79.70156 6530 ft 247 kts 43°
2026-05-09 02:14 43.77515 -79.68453 6217 ft 240 kts 43°
2026-05-09 02:14 43.78648 -79.66794 6005 ft 237 kts 43°
2026-05-09 02:15 43.79758 -79.65168 5778 ft 230 kts 44°
2026-05-09 02:15 43.80861 -79.63557 5293 ft 232 kts 44°
2026-05-09 02:15 43.81973 -79.61930 4830 ft 233 kts 44°
2026-05-09 02:15 43.83090 -79.60297 4405 ft 232 kts 45°
2026-05-09 02:16 43.84190 -79.58689 4059 ft 227 kts 45°
2026-05-09 02:16 43.85277 -79.57099 3982 ft 228 kts 45°
2026-05-09 02:16 43.86370 -79.55502 3987 ft 229 kts 46°
2026-05-09 02:16 43.87471 -79.53891 3992 ft 230 kts 46°
2026-05-09 02:17 43.88569 -79.52285 3988 ft 230 kts 45°
2026-05-09 02:17 43.89672 -79.50670 3993 ft 230 kts 46°
2026-05-09 02:17 43.90523 -79.48898 3829 ft 222 kts 73°
2026-05-09 02:17 43.90521 -79.46802 3293 ft 220 kts 114°
2026-05-09 02:18 43.89661 -79.45155 3028 ft 208 kts 137°
2026-05-09 02:18 43.88589 -79.43726 2992 ft 212 kts 139°
2026-05-09 02:18 43.87512 -79.42328 2990 ft 213 kts 139°
2026-05-09 02:18 43.86433 -79.40925 2990 ft 214 kts 139°
2026-05-09 02:19 43.85333 -79.39498 2985 ft 214 kts 139°